Wind_Speed
13 15 16 16 18 21 22 20 17 18 18 16 16 15 13 12 11 11 11 11 10 9 9 9 8 8 8 8 7 7 7 8 8 9 10 10 10 10 10 12 13 14
13 14 14 15 19 20 20 20 19 19 18 17 16 15 13 11 11 11 11 11 10 9 9 9 8 8 7 7 7 7 7 7 8 9 9 9 9 10 12 13 14 15
14 15 16 18 19 18 19 20 21 19 18 17 16 14 12 11 11 11 11 11 10 10 9 8 7 7 7 7 7 7 7 8 8 8 8 8 10 12 13 14 15 15
14 16 18 21 20 19 20 21 21 19 17 16 15 13 12 12 12 12 12 11 11 10 9 7 7 7 7 7 6 6 7 8 7 7 8 9 11 13 13 14 15 15
13 16 20 21 21 21 22 22 20 18 16 15 15 13 13 13 13 13 12 12 11 9 8 7 7 7 7 7 6 7 7 7 7 7 9 11 12 13 13 13 14 14
13 18 22 21 22 22 22 21 18 17 16 15 15 14 13 14 13 13 12 12 10 8 7 7 8 8 7 7 6 6 6 6 6 8 10 11 12 12 12 12 13 13
14 20 23 22 22 22 21 19 17 16 16 15 15 14 14 14 13 13 12 11 9 8 8 8 8 8 7 6 6 6 5 5 7 9 11 11 11 11 11 12 12 13
17 22 23 21 22 20 19 18 17 16 16 15 15 14 13 13 12 12 11 10 9 8 8 8 8 8 7 6 6 5 5 6 8 9 10 10 10 10 11 11 13 14
19 22 21 20 20 18 17 17 17 16 15 14 14 13 13 12 11 10 10 9 9 9 9 9 9 7 7 6 5 5 5 7 8 9 9 9 9 10 11 12 13 14
20 21 21 20 19 18 18 18 17 16 15 14 14 13 12 11 10 9 9 9 10 10 10 9 9 8 7 6 5 5 6 7 9 9 8 8 9 10 11 12 13 14
20 21 21 20 19 18 18 18 17 16 15 15 14 13 12 10 9 9 10 10 10 10 10 10 9 8 7 6 5 6 7 8 8 8 8 9 9 10 11 12 13 14
20 20 20 20 19 19 18 17 17 17 16 16 14 13 11 10 10 10 10 11 11 11 11 10 9 8 7 6 6 6 7 7 7 7 8 9 9 10 11 12 12 13
20 20 19 20 19 19 18 18 18 18 17 16 14 13 12 11 11 12 12 12 11 11 11 10 10 9 8 7 6 6 7 7 7 8 9 9 9 10 10 11 12 12
21 20 20 20 20 20 20 19 19 18 17 16 15 14 14 13 13 13 13 13 13 12 12 11 10 9 9 7 7 6 7 7 7 8 9 9 9 9 9 10 11 12
22 21 20 21 21 21 21 20 20 19 18 17 16 16 16 16 15 15 15 14 14 13 13 12 11 10 9 8 7 7 7 6 7 8 9 9 8 8 9 10 10 11
23 22 21 21 22 22 21 21 21 20 20 19 18 18 18 17 17 17 16 16 15 14 13 12 11 10 9 8 7 7 7 7 8 9 9 8 7 7 8 9 10 10
24 23 22 22 23 23 23 23 22 22 21 21 20 20 19 19 19 19 18 17 16 15 13 12 12 11 10 9 8 7 7 7 8 9 9 7 7 7 8 9 10 10
24 24 23 23 24 24 24 24 24 23 22 22 22 21 21 20 19 19 18 18 17 15 14 13 12 11 10 10 9 8 8 8 9 10 8 7 7 7 8 9 9 10
25 25 25 25 25 25 25 25 24 23 23 23 23 22 22 21 19 18 18 19 18 16 14 13 12 11 11 11 10 9 8 9 10 9 8 7 7 7 8 8 9 9
26 26 26 26 26 26 26 25 24 24 23 23 23 23 23 22 20 19 19 21 21 18 15 13 13 13 13 12 11 9 9 10 10 9 7 7 7 7 7 7 7 8
27 27 27 27 26 26 26 25 24 23 23 24 24 24 24 25 24 23 22 22 23 22 18 15 15 16 15 13 12 10 10 10 10 8 7 7 7 7 6 6 6 7
27 28 27 27 27 26 26 25 23 23 23 24 24 25 26 27 27 26 25 23 24 24 21 18 17 17 15 14 12 11 11 11 10 9 7 7 7 6 6 6 6 6
27 28 27 27 26 25 25 24 23 23 23 24 25 26 27 27 26 25 24 22 22 24 22 19 18 17 15 14 13 12 12 11 10 9 8 8 7 6 5 5 5 5
27 27 27 26 25 24 23 23 23 22 22 24 26 26 26 25 24 23 22 21 22 22 21 19 18 17 16 15 14 13 12 12 10 9 8 8 8 6 5 6 5 5
27 27 26 25 24 23 22 22 22 21 21 23 23 23 23 23 22 22 21 21 21 20 19 19 18 17 16 16 15 14 13 12 11 9 9 9 8 7 6 6 5 5
27 27 26 25 24 23 22 22 21 20 21 21 21 20 20 20 20 20 20 20 19 19 19 19 18 17 17 17 16 15 14 12 11 10 9 9 9 8 7 7 6 6
Wind_Direction
237 234 240 233 215 204 194 187 184 183 185 196 209 217 217 212 211 220 229 238 245 252 257 263 266 269 274 278 284 293 303 312 321 333 339 340 336 334 336 337 337 337
229 227 225 204 192 191 186 179 179 182 189 203 214 217 216 214 219 230 238 243 249 254 257 261 266 271 278 282 290 298 308 322 334 340 339 335 335 336 338 337 338 340
225 218 204 185 182 184 178 174 179 189 199 208 213 216 216 220 229 236 241 244 248 251 253 259 268 276 282 287 294 304 319 333 336 337 336 336 338 338 337 338 339 340
223 214 194 181 179 177 174 177 185 198 207 210 213 216 219 228 236 238 241 245 247 249 252 262 274 280 286 290 300 315 326 333 335 339 341 338 337 336 336 338 338 338
206 201 188 180 178 176 178 184 195 208 212 213 217 221 226 233 238 240 244 246 246 250 257 269 279 282 287 293 306 319 325 333 339 340 337 334 332 333 335 336 336 336
191 187 180 177 178 181 187 195 206 213 213 216 222 226 232 237 241 243 245 247 248 254 262 272 279 281 287 297 307 317 326 336 338 333 330 329 329 332 335 335 334 334
185 180 176 176 183 190 198 205 212 214 214 220 226 232 238 241 244 245 246 249 251 258 266 272 277 279 286 297 305 316 329 331 327 324 324 326 329 333 333 331 332 333
181 178 178 184 191 197 204 209 212 213 216 225 231 236 240 240 243 245 247 252 255 260 267 270 273 278 285 294 303 314 319 318 319 321 322 325 329 331 329 329 331 334
184 184 188 193 197 201 206 211 212 214 221 231 235 237 238 239 242 245 250 256 259 263 267 268 271 276 283 291 298 303 305 311 317 319 321 325 327 326 326 328 330 335
191 190 193 197 200 205 210 211 213 219 227 233 234 234 236 238 242 248 256 260 262 264 265 266 270 274 280 284 285 291 300 310 315 317 320 322 322 322 324 326 330 337
194 194 196 201 206 211 212 212 216 223 230 232 232 233 237 243 250 256 261 263 264 264 263 265 269 271 274 273 274 287 301 309 312 314 316 316 318 321 323 326 332 337
196 199 203 207 211 215 216 217 221 226 230 230 231 235 242 250 256 260 264 265 265 264 263 266 268 268 266 263 270 288 299 304 307 310 311 312 315 319 323 328 334 338
200 205 209 212 214 217 219 222 225 226 227 228 232 240 249 255 259 262 265 266 265 263 262 263 264 263 258 257 271 288 294 298 303 306 306 306 311 317 325 330 333 337
205 210 214 216 217 219 221 224 225 224 225 229 237 246 254 259 261 262 264 265 263 260 259 259 259 255 252 257 272 281 286 293 299 300 299 300 308 318 326 329 332 336
210 215 218 220 220 221 223 224 223 222 225 233 242 250 258 262 262 264 265 264 260 257 256 255 253 250 249 258 270 275 279 287 291 292 292 296 306 317 323 326 330 335
215 219 222 223 223 223 224 223 223 225 231 238 247 255 262 265 266 266 264 261 257 254 252 251 247 245 249 258 266 269 273 280 283 285 287 293 305 314 319 323 328 332
221 225 227 227 226 225 225 225 226 230 236 244 251 258 264 267 268 267 264 260 255 251 249 247 243 243 250 258 262 261 265 273 277 279 283 291 301 310 316 321 326 330
225 228 230 229 229 228 228 229 232 236 242 249 254 260 264 268 268 266 262 257 252 249 246 242 238 242 252 257 256 255 261 269 273 276 282 290 298 307 314 320 326 329
229 231 232 232 231 231 233 235 238 242 247 252 257 261 265 268 268 265 261 255 248 243 240 237 236 242 252 254 248 248 257 265 269 273 279 288 295 304 313 319 324 327
232 233 234 234 234 234 236 239 242 246 251 255 259 263 266 269 268 263 257 251 245 238 231 235 245 249 250 246 240 243 253 258 264 269 273 279 287 298 308 315 318 321
234 235 235 235 236 237 240 243 246 250 254 257 261 265 270 272 270 264 256 249 245 241 234 234 245 247 243 238 235 239 247 252 257 262 264 270 278 288 298 305 309 314
237 237 236 236 237 239 242 245 248 251 256 260 264 268 271 272 271 268 262 251 245 244 239 234 236 238 235 233 234 237 242 247 252 255 255 260 268 278 288 294 299 306
240 239 237 237 239 241 243 247 249 252 256 263 268 270 271 271 268 264 258 247 238 238 237 231 229 231 231 231 233 235 239 244 247 248 248 254 261 269 278 283 289 296
240 239 238 239 241 244 246 248 251 254 260 267 272 272 270 267 261 253 247 238 231 231 230 227 227 228 228 229 231 234 237 241 243 242 241 248 256 261 266 270 275 282
239 238 238 241 244 246 248 250 254 260 266 271 274 272 266 260 253 243 236 232 228 226 226 227 228 228 227 228 230 232 236 238 238 236 237 245 251 252 254 257 261 268
242 241 241 243 246 248 251 254 258 262 266 268 270 266 259 251 242 232 228 229 230 226 225 228 231 228 227 228 228 230 234 235 233 232 235 241 245 245 245 248 250 255
Height
3144 3145 3146 3146 3148 3149 3151 3153 3155 3157 3159 3160 3161 3162 3163 3163 3164 3165 3165 3166 3166 3166 3166 3166 3165 3165 3164 3164 3163 3163 3162 3161 3160 3159 3158 3157 3157 3157 3156 3156 3155 3154
3143 3144 3144 3145 3147 3149 3150 3152 3155 3156 3158 3159 3160 3161 3162 3162 3163 3163 3164 3164 3164 3164 3164 3164 3164 3163 3163 3162 3162 3161 3160 3159 3158 3157 3157 3157 3156 3156 3155 3154 3153 3152
3141 3142 3143 3145 3147 3149 3150 3152 3154 3155 3156 3158 3159 3160 3161 3161 3162 3162 3162 3163 3163 3163 3163 3162 3162 3161 3161 3160 3160 3159 3158 3157 3157 3156 3156 3156 3155 3154 3154 3153 3151 3150
3140 3141 3143 3144 3146 3148 3150 3152 3153 3154 3155 3156 3158 3158 3159 3160 3160 3160 3161 3161 3161 3161 3161 3160 3160 3160 3159 3159 3158 3157 3157 3156 3155 3155 3155 3154 3154 3153 3152 3151 3150 3149
3139 3141 3142 3143 3145 3148 3149 3151 3152 3153 3154 3155 3156 3157 3158 3158 3159 3159 3159 3159 3159 3159 3159 3159 3158 3158 3158 3157 3156 3156 3155 3155 3154 3154 3154 3153 3152 3152 3151 3150 3149 3148
3139 3140 3141 3143 3145 3147 3148 3150 3151 3152 3153 3154 3155 3155 3156 3156 3157 3157 3157 3157 3157 3157 3157 3157 3156 3156 3156 3155 3155 3154 3154 3153 3153 3153 3152 3152 3151 3150 3149 3149 3148 3147
3138 3139 3141 3142 3144 3146 3147 3149 3150 3151 3152 3153 3153 3154 3154 3155 3155 3155 3156 3156 3156 3156 3155 3155 3155 3155 3154 3154 3153 3153 3153 3152 3152 3152 3151 3150 3150 3149 3148 3148 3147 3146
3137 3139 3140 3142 3143 3145 3146 3148 3149 3149 3150 3151 3151 3152 3153 3153 3153 3154 3154 3154 3154 3154 3154 3153 3153 3153 3153 3152 3152 3152 3151 3151 3151 3150 3150 3149 3148 3148 3148 3147 3146 3145
3136 3138 3139 3141 3143 3144 3145 3146 3147 3148 3149 3149 3150 3151 3151 3152 3152 3152 3152 3152 3152 3152 3152 3152 3152 3151 3151 3151 3151 3150 3150 3150 3149 3149 3148 3148 3147 3147 3146 3146 3145 3144
3135 3137 3139 3140 3141 3143 3144 3145 3146 3147 3147 3148 3148 3149 3150 3150 3150 3150 3150 3150 3151 3150 3151 3150 3150 3150 3150 3149 3149 3149 3149 3148 3148 3148 3147 3147 3146 3146 3145 3144 3143 3142
3135 3136 3138 3139 3140 3141 3142 3143 3144 3145 3146 3146 3147 3147 3148 3148 3148 3148 3148 3149 3149 3149 3149 3149 3149 3148 3148 3148 3148 3148 3147 3147 3147 3146 3146 3146 3145 3144 3144 3143 3142 3141
3133 3135 3136 3137 3138 3139 3141 3142 3143 3144 3144 3145 3145 3146 3146 3146 3146 3147 3147 3147 3147 3147 3147 3147 3147 3147 3147 3147 3146 3146 3146 3145 3145 3145 3145 3144 3144 3143 3142 3141 3140 3139
3132 3133 3134 3135 3137 3138 3139 3140 3141 3142 3142 3143 3143 3144 3144 3144 3145 3145 3145 3145 3145 3145 3145 3146 3145 3145 3145 3145 3145 3145 3144 3144 3144 3144 3144 3143 3143 3142 3141 3140 3139 3138
3130 3131 3132 3134 3135 3136 3137 3138 3139 3140 3141 3141 3142 3142 3142 3143 3143 3143 3143 3143 3143 3143 3144 3144 3144 3144 3143 3143 3143 3143 3143 3143 3143 3143 3143 3142 3142 3141 3140 3139 3138 3137
3128 3129 3131 3132 3133 3135 3136 3137 3138 3139 3139 3140 3140 3140 3141 3141 3141 3141 3141 3141 3141 3141 3142 3142 3142 3142 3142 3142 3142 3142 3141 3141 3141 3142 3142 3141 3140 3139 3139 3138 3137 3137
3126 3127 3129 3130 3132 3133 3134 3135 3136 3137 3137 3138 3138 3138 3139 3139 3139 3139 3139 3139 3139 3139 3140 3140 3140 3140 3140 3140 3140 3140 3140 3140 3140 3141 3140 3140 3139 3138 3138 3137 3136 3135
3124 3125 3127 3128 3129 3131 3132 3133 3134 3134 3135 3136 3136 3136 3137 3137 3137 3137 3137 3137 3137 3138 3138 3138 3138 3138 3139 3139 3139 3138 3138 3138 3139 3139 3139 3138 3137 3137 3137 3136 3135 3134
3121 3123 3124 3126 3127 3128 3129 3131 3132 3132 3133 3134 3134 3134 3134 3135 3135 3135 3135 3135 3135 3135 3136 3136 3136 3137 3137 3137 3137 3137 3137 3137 3138 3138 3137 3136 3136 3136 3135 3134 3133 3132
3119 3120 3122 3123 3124 3126 3127 3128 3129 3130 3131 3131 3132 3132 3132 3132 3132 3133 3133 3133 3133 3133 3133 3134 3135 3135 3135 3136 3136 3135 3135 3136 3136 3136 3135 3134 3134 3134 3134 3133 3132 3131
3117 3118 3119 3121 3122 3123 3125 3126 3127 3128 3128 3129 3129 3129 3129 3130 3130 3130 3130 3130 3130 3131 3131 3132 3133 3134 3134 3134 3134 3134 3134 3134 3135 3134 3133 3133 3133 3133 3132 3131 3130 3130
3114 3116 3117 3118 3119 3121 3122 3123 3124 3125 3126 3126 3126 3126 3127 3127 3126 3126 3126 3126 3127 3128 3128 3129 3130 3132 3132 3132 3132 3132 3132 3133 3133 3132 3132 3132 3132 3132 3131 3130 3130 3129
3112 3113 3114 3116 3117 3118 3119 3121 3122 3122 3123 3123 3123 3124 3124 3123 3123 3122 3122 3122 3124 3125 3125 3125 3127 3129 3129 3130 3130 3130 3131 3131 3131 3131 3130 3130 3130 3130 3130 3129 3129 3128
3110 3111 3112 3113 3114 3115 3117 3118 3119 3119 3120 3120 3120 3120 3120 3120 3119 3119 3119 3119 3120 3122 3122 3123 3125 3126 3127 3128 3128 3128 3129 3129 3129 3129 3129 3129 3129 3129 3129 3128 3128 3127
3107 3108 3109 3110 3111 3113 3114 3115 3115 3116 3117 3117 3116 3116 3116 3116 3115 3115 3116 3117 3118 3119 3120 3122 3123 3124 3125 3125 3126 3127 3127 3127 3127 3127 3127 3127 3127 3127 3127 3127 3127 3127
3104 3105 3107 3108 3109 3110 3111 3112 3112 3113 3113 3113 3113 3112 3112 3112 3112 3112 3114 3115 3116 3117 3119 3120 3121 3122 3123 3123 3124 3125 3125 3125 3126 3126 3126 3126 3126 3126 3126 3126 3126 3126
3101 3102 3103 3105 3106 3107 3108 3108 3109 3109 3110 3109 3109 3109 3109 3109 3109 3110 3111 3113 3114 3115 3117 3118 3119 3120 3121 3122 3122 3123 3123 3123 3123 3124 3124 3124 3124 3124 3125 3125 3125 3125